Location: Marcé
(47.5801°N, 0.3280°W)
Time: 22:48:46
(UTC+01:00)

Transit 2A - Pass Details

Date: 05 December 2021
Orbit: 591 x 967 km, 66.7° (Epoch: 23 January)

Event Time Altitude Azimuth Distance (km) Brightness Sun altitude
Rises 04:14:32 0° 289° (WNW) 3,510 - -42.6°
Reaches altitude 10° 04:18:18 10° 313° (NW) 2,632 - -42.0°
Maximum altitude 04:21:39 15° 346° (NNW) 2,341 - -41.4°
Exits shadow 04:24:40 11° 16° (NNE) 2,625 9.0 -40.9°
Drops below altitude 10° 04:25:06 10° 19° (NNE) 2,703 9.1 -40.8°
Sets 04:29:04 0° 42° (NE) 3,664 10.1 -40.2°
